When you browse on this site, cookies collect data to enhance your experience and personalize the content and advertising you see.
Visit our Privacy Policy to learn more. By continuing to use the site, you agree to this use of cookies and data.
  • In Schweiz
  • Länderverzeichnis
  • Für 7 Tage
  • Wassertemperatur
  • Satellitenkarten
  • Wetterkarte
  • Widgets
  • user-avatar
    Anmelden

    Stündliche Wetter Homburg

    Heute, 24 Juli, Mittwoch

    Zeit Temperatur Niederschläge Wind Luftdruck Luftfeuchtigkeit
    00:00 +21°C° 0 mm 2 m/S 741 mmHg 77%
    01:00 +21°C° 0 mm 2 m/S 740 mmHg 79%
    02:00 +20°C° 0 mm 2 m/S 740 mmHg 82%
    03:00 +21°C° 0 mm 1 m/S 740 mmHg 84%
    04:00 +22°C° 0 mm 1 m/S 740 mmHg 82%
    05:00 +23°C° 0 mm 1 m/S 740 mmHg 80%
    06:00 +24°C° 0 mm 1 m/S 740 mmHg 77%
    07:00 +26°C° 0 mm 1 m/S 740 mmHg 70%
    08:00 +28°C° 0 mm 1 m/S 740 mmHg 63%
    09:00 +30°C° 0 mm 1 m/S 740 mmHg 56%
    10:00 +32°C° 0 mm 1 m/S 740 mmHg 51%
    11:00 +33°C° 0 mm 1 m/S 740 mmHg 46%
    12:00 +35°C° 0 mm 1 m/S 740 mmHg 42%
    13:00 +35°C° 0 mm 1 m/S 740 mmHg 39%
    14:00 +36°C° 0 mm 1 m/S 740 mmHg 36%
    15:00 +36°C° 0 mm 1 m/S 739 mmHg 34%
    16:00 +34°C° 0 mm 1 m/S 739 mmHg 41%
    17:00 +33°C° 0 mm 1 m/S 739 mmHg 48%
    18:00 +31°C° 0 mm 1 m/S 739 mmHg 55%
    19:00 +29°C° 0 mm 1 m/S 739 mmHg 60%
    20:00 +27°C° 0 mm 1 m/S 740 mmHg 64%
    21:00 +23°C° 0 mm 0 m/S 740 mmHg 69%
    22:00 +25°C° 0 mm 1 m/S 740 mmHg 70%
    23:00 +25°C° 0 mm 1 m/S 740 mmHg 71%

    Morgen, 25 Juli, Donnerstag

    Zeit Temperatur Niederschläge Wind Luftdruck Luftfeuchtigkeit
    00:00 +24°C° 0 mm 1 m/S 740 mmHg 73%
    01:00 +24°C° 0 mm 1 m/S 740 mmHg 73%
    02:00 +24°C° 0 mm 1 m/S 740 mmHg 74%
    03:00 +23°C° 0 mm 1 m/S 740 mmHg 74%
    04:00 +24°C° 0 mm 1 m/S 740 mmHg 73%
    05:00 +25°C° 0 mm 1 m/S 740 mmHg 72%
    06:00 +26°C° 0 mm 1 m/S 740 mmHg 71%
    07:00 +29°C° 0 mm 1 m/S 740 mmHg 65%
    08:00 +31°C° 0 mm 2 m/S 741 mmHg 58%
    09:00 +34°C° 0 mm 2 m/S 741 mmHg 51%
    10:00 +35°C° 0 mm 2 m/S 740 mmHg 46%
    11:00 +36°C° 0 mm 3 m/S 740 mmHg 41%
    12:00 +37°C° 0 mm 3 m/S 740 mmHg 36%
    13:00 +37°C° 0 mm 3 m/S 740 mmHg 35%
    14:00 +37°C° 0 mm 3 m/S 739 mmHg 34%
    15:00 +37°C° 0 mm 4 m/S 739 mmHg 34%
    16:00 +36°C° 0 mm 3 m/S 739 mmHg 40%
    17:00 +34°C° 0 mm 3 m/S 739 mmHg 46%
    18:00 +31°C° 0 mm 3 m/S 738 mmHg 53%
    19:00 +30°C° 0 mm 3 m/S 738 mmHg 56%
    20:00 +28°C° 0 mm 2 m/S 739 mmHg 59%
    21:00 +26°C° 0 mm 2 m/S 739 mmHg 62%
    22:00 +26°C° 0 mm 2 m/S 738 mmHg 65%
    23:00 +25°C° 0 mm 2 m/S 738 mmHg 67%

    übermorgen, 26 Juli, Freitag

    Zeit Temperatur Niederschläge Wind Luftdruck Luftfeuchtigkeit
    00:00 +25°C° 0 mm 2 m/S 738 mmHg 69%
    01:00 +24°C° 0 mm 2 m/S 738 mmHg 70%
    02:00 +24°C° 0 mm 2 m/S 738 mmHg 71%
    03:00 +22°C° 0 mm 3 m/S 737 mmHg 72%
    04:00 +24°C° 0 mm 3 m/S 737 mmHg 72%
    05:00 +25°C° 0 mm 3 m/S 737 mmHg 71%
    06:00 +25°C° 0 mm 3 m/S 737 mmHg 71%
    07:00 +27°C° 0 mm 3 m/S 737 mmHg 64%
    08:00 +29°C° 0 mm 3 m/S 737 mmHg 57%
    09:00 +32°C° 0 mm 4 m/S 737 mmHg 50%
    10:00 +34°C° 0 mm 4 m/S 737 mmHg 46%
    11:00 +35°C° 0 mm 4 m/S 736 mmHg 41%
    12:00 +36°C° 0 mm 4 m/S 736 mmHg 37%
    13:00 +36°C° 0 mm 4 m/S 736 mmHg 36%
    14:00 +36°C° 0 mm 3 m/S 735 mmHg 36%
    15:00 +36°C° 0 mm 3 m/S 735 mmHg 35%
    16:00 +35°C° 0 mm 3 m/S 734 mmHg 41%
    17:00 +33°C° 0 mm 3 m/S 734 mmHg 48%
    18:00 +31°C° 0 mm 3 m/S 734 mmHg 54%
    19:00 +29°C° 0 mm 3 m/S 734 mmHg 54%
    20:00 +28°C° 0 mm 3 m/S 733 mmHg 53%
    21:00 +26°C° 0 mm 3 m/S 733 mmHg 53%
    22:00 +25°C° 0 mm 3 m/S 733 mmHg 57%
    23:00 +24°C° 0 mm 3 m/S 733 mmHg 61%

    27 Juli, Samstag

    Zeit Temperatur Niederschläge Wind Luftdruck Luftfeuchtigkeit
    00:00 +23°C° 0 mm 2 m/S 733 mmHg 65%
    01:00 +21°C° 0 mm 2 m/S 733 mmHg 71%
    02:00 +22°C° 0 mm 1 m/S 733 mmHg 76%
    03:00 +21°C° 0 mm 1 m/S 732 mmHg 81%
    04:00 +22°C° 0 mm 1 m/S 732 mmHg 78%
    05:00 +21°C° 0 mm 2 m/S 732 mmHg 76%
    06:00 +22°C° 0 mm 3 m/S 732 mmHg 73%
    07:00 +25°C° 0 mm 2 m/S 732 mmHg 70%
    08:00 +26°C° 0 mm 2 m/S 732 mmHg 67%
    09:00 +28°C° 0 mm 1 m/S 733 mmHg 64%
    10:00 +29°C° 0.2 mm 1 m/S 732 mmHg 60%
    11:00 +30°C° 0.2 mm 2 m/S 732 mmHg 57%
    12:00 +31°C° 0.2 mm 2 m/S 732 mmHg 53%
    13:00 +30°C° 0.9 mm 2 m/S 731 mmHg 54%
    14:00 +30°C° 0.9 mm 2 m/S 731 mmHg 55%
    15:00 +30°C° 0.9 mm 2 m/S 730 mmHg 56%
    16:00 +29°C° 0.9 mm 2 m/S 730 mmHg 62%
    17:00 +27°C° 0.9 mm 2 m/S 730 mmHg 67%
    18:00 +26°C° 0.9 mm 3 m/S 730 mmHg 72%
    19:00 +24°C° 2.2 mm 2 m/S 730 mmHg 79%
    20:00 +23°C° 2.2 mm 2 m/S 731 mmHg 86%
    21:00 +21°C° 2.2 mm 1 m/S 731 mmHg 94%
    22:00 +20°C° 0.2 mm 1 m/S 731 mmHg 93%
    23:00 +20°C° 0.2 mm 1 m/S 731 mmHg 92%

    28 Juli, Sonntag

    Zeit Temperatur Niederschläge Wind Luftdruck Luftfeuchtigkeit
    00:00 +20°C° 0.2 mm 1 m/S 731 mmHg 91%
    01:00 +20°C° 0.1 mm 1 m/S 731 mmHg 93%
    02:00 +19°C° 0.1 mm 1 m/S 731 mmHg 94%
    03:00 +19°C° 0.1 mm 1 m/S 731 mmHg 95%
    04:00 +17°C° 0.2 mm 0 m/S 731 mmHg 95%
    05:00 +17°C° 0.2 mm 0 m/S 732 mmHg 95%
    06:00 +18°C° 0.2 mm 0 m/S 732 mmHg 95%
    07:00 +20°C° 0.2 mm 1 m/S 733 mmHg 93%
    08:00 +21°C° 0.2 mm 1 m/S 733 mmHg 92%
    09:00 +21°C° 0.2 mm 1 m/S 733 mmHg 90%
    10:00 +21°C° 0.1 mm 2 m/S 733 mmHg 87%
    11:00 +21°C° 0.1 mm 2 m/S 734 mmHg 84%
    12:00 +21°C° 0.1 mm 3 m/S 734 mmHg 81%
    13:00 +22°C° 0.2 mm 3 m/S 734 mmHg 78%
    14:00 +24°C° 0.2 mm 3 m/S 734 mmHg 75%
    15:00 +25°C° 0.2 mm 4 m/S 734 mmHg 71%
    16:00 +23°C° 0.3 mm 4 m/S 735 mmHg 75%
    17:00 +22°C° 0.3 mm 4 m/S 735 mmHg 78%
    18:00 +21°C° 0.3 mm 4 m/S 735 mmHg 82%
    19:00 +20°C° 0 mm 3 m/S 736 mmHg 86%
    20:00 +18°C° 0 mm 3 m/S 736 mmHg 91%
    21:00 +17°C° 0 mm 2 m/S 737 mmHg 95%
    22:00 +17°C° 0 mm 2 m/S 737 mmHg 96%
    23:00 +16°C° 0 mm 2 m/S 737 mmHg 97%

    29 Juli, Montag

    Zeit Temperatur Niederschläge Wind Luftdruck Luftfeuchtigkeit
    00:00 +16°C° 0 mm 2 m/S 737 mmHg 98%
    01:00 +16°C° 0 mm 2 m/S 737 mmHg 98%
    02:00 +16°C° 0 mm 1 m/S 737 mmHg 98%
    03:00 +16°C° 0 mm 1 m/S 738 mmHg 98%
    04:00 +18°C° 0 mm 1 m/S 738 mmHg 96%
    05:00 +19°C° 0 mm 1 m/S 738 mmHg 95%
    06:00 +17°C° 0 mm 0 m/S 738 mmHg 93%
    07:00 +18°C° 0 mm 0 m/S 738 mmHg 90%
    08:00 +19°C° 0 mm 0 m/S 739 mmHg 86%
    09:00 +22°C° 0 mm 1 m/S 739 mmHg 82%
    10:00 +24°C° 0 mm 1 m/S 739 mmHg 74%
    11:00 +26°C° 0 mm 1 m/S 739 mmHg 66%
    12:00 +28°C° 0 mm 1 m/S 739 mmHg 57%
    13:00 +29°C° 0 mm 2 m/S 739 mmHg 56%
    14:00 +29°C° 0 mm 2 m/S 739 mmHg 54%
    15:00 +29°C° 0 mm 3 m/S 738 mmHg 53%
    16:00 +28°C° 0 mm 2 m/S 738 mmHg 58%
    17:00 +27°C° 0 mm 2 m/S 738 mmHg 63%
    18:00 +27°C° 0 mm 1 m/S 738 mmHg 67%
    19:00 +25°C° 0 mm 1 m/S 738 mmHg 72%
    20:00 +23°C° 0 mm 1 m/S 739 mmHg 76%
    21:00 +19°C° 0 mm 0 m/S 739 mmHg 80%
    22:00 +19°C° 0 mm 0 m/S 739 mmHg 80%
    23:00 +21°C° 0 mm 1 m/S 739 mmHg 80%
    Mehr zeigen